SCP
0 0 0 0 0 0 0 0 0 0 0 0 0 0 0 0 0 0 0 0 0 0 0 0 0 0 0 0 0 0 0 0
0 0 0 0 0 0 0 0 0 0 0 0 0 0 0 0 0 0 0 0 0 0 0 0 0 0 0 0 0 0 0 0
0 0 0 0 0 0 0 0 0 0 0 0 0 0 0 0 0 0 0 0 0 0 0 0 0 0 0 0 0 0 0 0
0 0 0 0 0 0 0 0 0 0 0 0 0 0 0 0 0 0 0 0 0 0 0 0 0 0 0 0 0 0 0 0
0 0 0 0 0 0 0 0 0 0 0 0 0 0 0 0 0 0 0 0 0 0 0 0 0 0 0 0 0 0 0 0
0 0 0 0 0 0 0 0 0 0 0 0 0 0 0 0 0 0 0 0 0 0 0 0 0 0 0 0 0 0 0 0
0 0 0 0 0 0 0 0 0 0 0 0 0 0 0 0 0 0 0 0 0 0 0 0 0 0 0 0 0 0 0 0
0 0 0 0 0 0 0 0 0 0 0 0 0 0 0 0 0 0 0 0 0 0 0 0 0 0 0 0 0 0 0 0
0 0 0 0 0 0 0 0 0 0 0 0 0 0 0 0 0 0 0 0 0 0 0 0 0 0 0 0 0 0 0 0
0 0 0 0 0 0 0 0 0 0 0 0 0 0 0 0 0 0 0 0 0 0 0 0 0 0 0 0 0 0 0 0
0 0 0 0 0 0 0 0 0 0 0 0 0 0 0 0 0 0 0 0 0 0 0 0 0 0 0 0 0 0 -0 0
0 0 0 0 0 0 0 0 0 0 0 0 0 0 0 0 0 0 0 0 0 0 0 0 0 0 0 0 0 0 -0 0
0 0 0 0 0 0 0 0 0 0 0 0 0 0 0 0 0 0 0 0 0 0 0 0 0 0 0 0 0 0 0 0
0 0 0 0 0 0 0 0 0 0 0 0 0 0 0 0 0 0 0 0 0 0 0 0 0 0 0 0 0 0 0 -0
0 0 0 0 0 0 0 0 0 0 0 0 0 0 0 0 0 0 0 0 0 0 -0 -0 0 -0 0 0 0 0 -0 -0
0 0 0 0 0 0 0 0 0 0 0 0 0 0 0 0 0 0 0 0 0 0 -0 -0 -0 -0 0 0 0 0 0 -0
0 0 0 0 0 0 0 0 0 0 0 0 0 0 0 0 0 0 0 0 -0 -0 -0 -0 -0 0 -0 -0 -0 -0 -0 0
0 0 0 0 0 0 0 0 0 0 0 0 0 0 0 0 0 0 0 0 0 -0 -0 -0 -0 0 -0 -0 -0 -0 0 0
0 0 0 0 0 0 0 0 0 0 0 0 0 0 0 0 0 0 0 0 0 0 -0 -0 -0 0 0 -0 -0 -0 0 0
0 0 0 0 0 0 0 0 0 0 0 0 0 0 0 0 0 0 0 0 0 0 0 0 -0 0 0 -0 -0 -0 0 0
Wind_Speed_500mb
83 88 76 60 48 39 32 30 34 38 43 48 54 59 67 72 78 84 88 89 90 90 91 94 97 99 95 93 91 88 79 67
80 85 73 59 49 39 31 30 34 39 42 50 56 63 68 75 80 85 88 86 89 90 92 94 98 99 94 88 90 86 77 84
77 83 72 63 53 39 31 30 34 40 45 52 59 65 71 76 82 85 88 85 86 90 95 100 100 97 91 90 85 80 82 78
72 86 80 66 51 38 32 31 35 40 48 54 61 68 74 78 83 85 87 89 88 90 92 97 100 94 88 82 82 77 81 84
79 92 81 63 49 39 34 31 34 41 49 56 63 70 75 80 82 83 85 89 91 91 93 93 95 84 75 69 74 78 80 80
87 96 81 67 51 38 30 30 36 43 50 59 66 72 76 79 80 82 82 86 89 93 92 91 86 80 65 62 66 70 77 76
84 98 77 56 41 31 27 29 35 44 55 63 70 74 76 75 78 80 81 83 88 91 93 90 83 67 66 66 73 74 77 81
81 92 72 50 35 26 24 27 34 45 56 65 73 76 75 75 75 77 82 86 89 89 88 85 79 67 65 63 68 75 80 79
75 80 61 44 32 24 21 25 36 47 57 65 71 72 71 72 72 76 82 86 87 88 85 81 74 65 65 64 65 69 71 82
73 75 57 43 32 20 17 25 36 47 58 65 68 68 69 70 71 75 84 88 89 85 82 79 69 60 63 61 62 73 75 88
77 68 53 40 27 15 15 23 35 47 57 61 63 64 65 66 69 73 80 87 89 91 88 86 80 72 64 60 52 67 69 63
74 61 49 37 24 15 15 22 35 45 49 52 56 58 59 63 64 72 80 86 90 93 92 83 75 79 61 56 60 65 66 65
70 60 50 37 27 18 14 23 34 40 44 45 45 49 53 59 62 68 76 86 92 92 93 82 84 71 70 65 56 56 61 63
68 60 48 38 28 17 15 21 30 34 36 40 41 45 48 56 62 68 74 79 87 85 86 95 84 92 70 76 64 60 59 61
65 55 46 35 23 16 14 21 27 29 33 37 40 40 43 50 58 63 68 75 78 86 85 97 90 91 85 84 85 75 62 60
64 55 44 32 22 15 15 21 22 25 29 32 36 41 41 43 55 59 56 53 61 70 78 85 95 90 82 82 81 64 54 60
64 54 43 32 22 14 16 20 20 21 25 30 35 39 44 49 44 46 55 56 50 53 63 76 73 77 76 76 58 48 49 20
66 54 44 33 22 14 15 18 18 20 24 27 31 36 43 48 56 65 53 59 65 66 65 73 69 71 74 71 54 55 43 46
65 56 45 34 23 16 12 14 15 18 22 24 28 33 38 45 52 58 66 75 75 73 81 80 75 71 71 74 65 73 70 68
65 56 46 36 25 17 11 9 9 12 16 18 22 29 35 40 46 52 56 63 71 74 78 91 86 85 86 89 95 92 90 86
Wind_Direction_500mb
219 216 216 221 230 244 268 289 301 308 313 319 317 317 319 319 319 317 316 316 315 313 310 309 306 303 300 293 288 284 281 267
221 214 216 222 232 245 265 284 297 306 314 315 317 319 318 319 319 317 316 316 315 313 310 307 304 301 298 287 284 280 274 275
225 210 212 221 230 241 260 280 295 305 310 313 316 318 320 321 321 320 319 319 317 314 312 308 302 299 295 287 281 274 275 275
221 212 216 219 225 238 256 276 290 300 308 314 317 319 321 323 322 322 322 321 318 314 311 308 304 300 294 287 283 276 274 274
217 214 215 216 224 236 254 272 289 302 310 315 319 322 323 322 323 325 324 321 319 316 313 310 305 298 291 282 277 274 275 276
221 212 211 213 220 234 254 277 295 306 314 318 322 324 324 326 326 324 325 322 320 319 317 313 310 305 295 288 285 285 289 288
223 213 208 211 220 238 262 282 303 316 320 324 324 327 328 328 327 327 326 325 324 325 324 321 314 298 290 285 283 282 277 277
221 212 204 208 221 240 263 292 312 320 323 327 329 330 330 330 331 330 329 330 333 331 329 327 317 301 296 290 285 283 282 279
217 201 198 203 216 236 270 303 317 322 327 331 329 330 331 332 335 333 333 337 337 337 339 330 319 305 300 296 292 289 284 282
211 192 192 201 210 231 278 311 321 328 331 331 330 332 335 335 338 339 338 339 340 342 342 338 331 321 308 305 302 297 300 286
189 186 190 196 205 230 282 309 324 331 334 333 333 336 337 337 340 344 342 342 342 343 348 344 336 329 313 308 305 306 297 298
181 183 188 192 200 227 275 309 324 330 330 331 334 337 336 339 345 346 345 344 347 346 346 336 330 331 321 316 306 302 298 294
179 183 187 191 203 223 269 308 323 328 330 331 335 338 341 342 346 351 348 349 349 346 339 334 331 329 322 318 312 307 301 298
186 185 187 194 206 226 273 311 322 328 330 331 339 344 347 347 350 354 353 354 350 339 336 334 335 328 331 330 321 310 301 292
186 186 191 197 204 236 287 315 326 329 331 333 342 349 355 352 354 1 357 357 344 339 337 338 332 333 334 329 326 318 301 289
188 190 192 197 209 241 291 313 323 326 330 338 347 351 359 6 1 5 5 353 343 341 338 338 334 336 333 332 328 325 317 302
189 190 193 198 210 240 286 308 316 327 337 344 354 356 359 359 11 14 11 12 0 351 348 346 340 341 344 343 347 350 343 352
191 189 194 199 206 239 281 300 317 335 344 352 357 358 4 3 3 3 15 18 19 15 0 358 353 355 358 359 7 14 28 38
190 191 192 196 205 232 266 295 317 337 346 357 359 2 6 7 8 8 9 9 15 24 22 11 12 7 9 13 32 35 34 34
189 190 191 194 205 224 246 276 309 334 346 357 2 5 6 9 12 14 14 15 15 16 26 22 25 31 34 38 38 29 27 27
Wind_Speed_850mb
83 88 76 60 48 39 32 30 34 38 43 48 54 59 67 72 78 84 88 89 90 90 91 94 97 99 95 93 91 88 79 67
80 85 73 59 49 39 31 30 34 39 42 50 56 63 68 75 80 85 88 86 89 90 92 94 98 99 94 88 90 86 77 84
77 83 72 63 53 39 31 30 34 40 45 52 59 65 71 76 82 85 88 85 86 90 95 100 100 97 91 90 85 80 82 78
72 86 80 66 51 38 32 31 35 40 48 54 61 68 74 78 83 85 87 89 88 90 92 97 100 94 88 82 82 77 81 84
79 92 81 63 49 39 34 31 34 41 49 56 63 70 75 80 82 83 85 89 91 91 93 93 95 84 75 69 74 78 80 80
87 96 81 67 51 38 30 30 36 43 50 59 66 72 76 79 80 82 82 86 89 93 92 91 86 80 65 62 66 70 77 76
84 98 77 56 41 31 27 29 35 44 55 63 70 74 76 75 78 80 81 83 88 91 93 90 83 67 66 66 73 74 77 81
81 92 72 50 35 26 24 27 34 45 56 65 73 76 75 75 75 77 82 86 89 89 88 85 79 67 65 63 68 75 80 79
75 80 61 44 32 24 21 25 36 47 57 65 71 72 71 72 72 76 82 86 87 88 85 81 74 65 65 64 65 69 71 82
73 75 57 43 32 20 17 25 36 47 58 65 68 68 69 70 71 75 84 88 89 85 82 79 69 60 63 61 62 73 75 88
77 68 53 40 27 15 15 23 35 47 57 61 63 64 65 66 69 73 80 87 89 91 88 86 80 72 64 60 52 67 69 63
74 61 49 37 24 15 15 22 35 45 49 52 56 58 59 63 64 72 80 86 90 93 92 83 75 79 61 56 60 65 66 65
70 60 50 37 27 18 14 23 34 40 44 45 45 49 53 59 62 68 76 86 92 92 93 82 84 71 70 65 56 56 61 63
68 60 48 38 28 17 15 21 30 34 36 40 41 45 48 56 62 68 74 79 87 85 86 95 84 92 70 76 64 60 59 61
65 55 46 35 23 16 14 21 27 29 33 37 40 40 43 50 58 63 68 75 78 86 85 97 90 91 85 84 85 75 62 60
64 55 44 32 22 15 15 21 22 25 29 32 36 41 41 43 55 59 56 53 61 70 78 85 95 90 82 82 81 64 54 60
64 54 43 32 22 14 16 20 20 21 25 30 35 39 44 49 44 46 55 56 50 53 63 76 73 77 76 76 58 48 49 20
66 54 44 33 22 14 15 18 18 20 24 27 31 36 43 48 56 65 53 59 65 66 65 73 69 71 74 71 54 55 43 46
65 56 45 34 23 16 12 14 15 18 22 24 28 33 38 45 52 58 66 75 75 73 81 80 75 71 71 74 65 73 70 68
65 56 46 36 25 17 11 9 9 12 16 18 22 29 35 40 46 52 56 63 71 74 78 91 86 85 86 89 95 92 90 86
Wind_Direction_850mb
219 216 216 221 230 244 268 289 301 308 313 319 317 317 319 319 319 317 316 316 315 313 310 309 306 303 300 293 288 284 281 267
221 214 216 222 232 245 265 284 297 306 314 315 317 319 318 319 319 317 316 316 315 313 310 307 304 301 298 287 284 280 274 275
225 210 212 221 230 241 260 280 295 305 310 313 316 318 320 321 321 320 319 319 317 314 312 308 302 299 295 287 281 274 275 275
221 212 216 219 225 238 256 276 290 300 308 314 317 319 321 323 322 322 322 321 318 314 311 308 304 300 294 287 283 276 274 274
217 214 215 216 224 236 254 272 289 302 310 315 319 322 323 322 323 325 324 321 319 316 313 310 305 298 291 282 277 274 275 276
221 212 211 213 220 234 254 277 295 306 314 318 322 324 324 326 326 324 325 322 320 319 317 313 310 305 295 288 285 285 289 288
223 213 208 211 220 238 262 282 303 316 320 324 324 327 328 328 327 327 326 325 324 325 324 321 314 298 290 285 283 282 277 277
221 212 204 208 221 240 263 292 312 320 323 327 329 330 330 330 331 330 329 330 333 331 329 327 317 301 296 290 285 283 282 279
217 201 198 203 216 236 270 303 317 322 327 331 329 330 331 332 335 333 333 337 337 337 339 330 319 305 300 296 292 289 284 282
211 192 192 201 210 231 278 311 321 328 331 331 330 332 335 335 338 339 338 339 340 342 342 338 331 321 308 305 302 297 300 286
189 186 190 196 205 230 282 309 324 331 334 333 333 336 337 337 340 344 342 342 342 343 348 344 336 329 313 308 305 306 297 298
181 183 188 192 200 227 275 309 324 330 330 331 334 337 336 339 345 346 345 344 347 346 346 336 330 331 321 316 306 302 298 294
179 183 187 191 203 223 269 308 323 328 330 331 335 338 341 342 346 351 348 349 349 346 339 334 331 329 322 318 312 307 301 298
186 185 187 194 206 226 273 311 322 328 330 331 339 344 347 347 350 354 353 354 350 339 336 334 335 328 331 330 321 310 301 292
186 186 191 197 204 236 287 315 326 329 331 333 342 349 355 352 354 1 357 357 344 339 337 338 332 333 334 329 326 318 301 289
188 190 192 197 209 241 291 313 323 326 330 338 347 351 359 6 1 5 5 353 343 341 338 338 334 336 333 332 328 325 317 302
189 190 193 198 210 240 286 308 316 327 337 344 354 356 359 359 11 14 11 12 0 351 348 346 340 341 344 343 347 350 343 352
191 189 194 199 206 239 281 300 317 335 344 352 357 358 4 3 3 3 15 18 19 15 0 358 353 355 358 359 7 14 28 38
190 191 192 196 205 232 266 295 317 337 346 357 359 2 6 7 8 8 9 9 15 24 22 11 12 7 9 13 32 35 34 34
189 190 191 194 205 224 246 276 309 334 346 357 2 5 6 9 12 14 14 15 15 16 26 22 25 31 34 38 38 29 27 27